Flag for Germany Weather past 2 weeks in Paderborn, North Rhine-Westphalia, Germany

Now
50 °F

Overcast.


Feels Like: 44 °F
Forecast: 39 / 44 °F
Wind: 17 mph from Southwest

Location: Paderborn / Lippstadt

Current Time: Mar 29, 2015 at 3:33:54 AM

Latest Report: Mar 29, 2015 at 3:20 AM


Visibility: N/A

Pressure: 29.71 "Hg

Humidity: 82%

Dew point: 45 °F

Location of PaderbornLocation

Historic Weather in Paderborn — Graph

°F

Paderborn temperature yesterday

Maximum temperature yesterday: 52 °F (at 1:20 PM)
Minimum temperature yesterday: 32 °F (at 3:20 AM)
Average temperature yesterday: 43 °F

Past Weeks' High & Low Weather Summary

 TemperatureHumidityPressure
High59 °F (Mar 17, 3:20 PM)100% (Mar 14, 1:20 AM)30.36 "Hg (Mar 14, 1:20 AM)
Low28 °F (Mar 23, 2:50 AM)41% (Mar 25, 11:50 AM)29.62 "Hg (Mar 25, 6:20 AM)
Average41 °F83%30.10 "Hg
* Reported Mar 14 1:20 AM — Mar 29 1:20 AM, Paderborn, Weather by CustomWeather, © 2015

Note: Actual official high and low records may vary slightly from our data, if they occured in-between our weather recording intervals... More about our weather records

Advertising

Paderborn weather history for previous 24 hours

 ConditionsComfort  
Time TempWeatherWind HumidityBarometerVisibility
1:20 AM
Sun, Mar 29
48 °FLight rain. Overcast.17 mph87%29.71 "HgN/A
12:50 AM48 °FLight rain. Overcast.15 mph87%29.74 "HgN/A
12:20 AM46 °FLight rain. Passing clouds.16 mph93%29.74 "HgN/A
11:50 PM
Sat, Mar 28
48 °FPassing clouds.18 mph82%29.77 "HgN/A
11:20 PM48 °FPassing clouds.21 mph82%29.77 "HgN/A
10:50 PM48 °FPassing clouds.18 mph82%29.77 "HgN/A
10:20 PM48 °FPassing clouds.17 mph82%29.80 "HgN/A
9:50 PM48 °FPassing clouds.18 mph82%29.80 "HgN/A
9:20 PM46 °FPassing clouds.20 mph82%29.83 "HgN/A
8:50 PM46 °FPassing clouds.18 mph87%29.86 "HgN/A
8:20 PM46 °FPassing clouds.17 mph82%29.86 "HgN/A
7:50 PM46 °FPassing clouds.15 mph82%29.89 "HgN/A
7:20 PM46 °FLight rain. Passing clouds.16 mph82%29.86 "Hg6 mi
6:50 PM46 °FPartly sunny.18 mph82%29.89 "HgN/A
6:20 PM46 °FPartly sunny.15 mph76%29.89 "HgN/A
5:50 PM46 °FPartly sunny.12 mph76%29.89 "HgN/A
5:20 PM46 °FPartly sunny.10 mph76%29.89 "HgN/A
4:50 PM46 °FDrizzle. Partly sunny.10 mph71%29.92 "HgN/A
4:20 PM46 °FScattered showers. Partly sunny.10 mph71%29.92 "HgN/A
3:50 PM46 °FScattered showers. Partly sunny.10 mph66%29.95 "HgN/A
3:20 PM48 °FDrizzle. Broken clouds.14 mph58%29.95 "Hg5 mi
2:50 PM52 °FSunny.17 mph47%29.95 "Hg10 mi
2:20 PM52 °FSunny.14 mph47%29.98 "Hg10 mi
1:50 PM52 °FPassing clouds.13 mph47%29.98 "HgN/A
1:20 PM52 °FPassing clouds.13 mph44%30.01 "HgN/A
12:50 PM50 °FPassing clouds.13 mph47%30.04 "HgN/A
12:20 PM48 °FPassing clouds.14 mph46%30.04 "HgN/A
11:50 AM46 °FScattered clouds.9 mph53%30.07 "HgN/A
11:20 AM46 °FScattered clouds.13 mph57%30.07 "HgN/A
10:50 AM46 °FScattered clouds.10 mph57%30.09 "HgN/A
10:20 AM46 °FPassing clouds.12 mph53%30.09 "HgN/A
9:50 AM45 °FSunny.9 mph61%30.12 "Hg10 mi
9:20 AM43 °FSunny.9 mph66%30.12 "Hg10 mi
8:50 AM41 °FSunny.9 mph70%30.12 "Hg10 mi
8:20 AM39 °FPassing clouds.8 mph70%30.15 "Hg5 mi
7:50 AM37 °FPassing clouds.9 mph75%30.15 "Hg5 mi
7:20 AM36 °FClear.3 mph81%30.15 "Hg5 mi
6:50 AM34 °FClear.3 mph87%30.15 "Hg5 mi
6:20 AM36 °FClear.3 mph81%30.15 "Hg5 mi
5:50 AM34 °FClear.2 mph87%30.18 "Hg10 mi
5:20 AM36 °FClear.2 mph81%30.18 "Hg10 mi
4:50 AM32 °FClear.5 mph87%30.18 "Hg10 mi
4:20 AM36 °FClear.7 mph87%30.18 "Hg10 mi
3:50 AM36 °FClear.8 mph87%30.18 "Hg10 mi
3:20 AM32 °FPassing clouds.7 mph93%30.18 "HgN/A
Weather by CustomWeather, © 2015

See weather overviewHow to use our weather pages